Wind_Speed
22 22 22 23 23 22 21 19 18 18 16 16 17 18 19 21 22 23 22 20 19 18 19 20 21 21 21 22 23 23 22 20 19 19 18 16 15 14 14 16 17 16 15 14 13 12 12 12 11 11 10 9 9 9 9 9 9 10 10 10 11 11 11
29 27 25 25 25 23 22 22 22 20 19 18 18 18 19 20 21 22 23 22 21 19 20 21 21 22 22 23 24 23 22 21 20 20 18 15 14 14 15 18 18 17 16 15 14 13 13 12 12 11 10 10 9 8 7 7 7 7 7 7 7 8 8
33 31 29 28 27 24 22 23 24 22 21 20 18 17 18 19 21 23 23 24 23 21 21 21 22 23 24 24 24 24 23 22 22 21 19 16 15 16 17 19 19 19 17 16 15 15 14 13 12 11 10 10 9 8 7 7 6 5 4 4 4 4 4
33 32 31 30 29 26 23 24 25 24 23 21 19 18 19 20 21 23 24 25 25 23 22 22 23 24 25 25 25 24 24 23 23 22 20 18 17 17 18 19 19 19 18 17 16 16 15 13 12 11 11 10 9 9 8 7 6 6 5 4 3 2 2
32 33 33 31 30 28 26 26 27 26 24 22 21 20 20 22 23 24 25 26 26 25 25 24 25 26 26 26 26 26 25 25 25 24 22 20 19 18 19 20 20 20 19 18 17 17 15 14 13 12 11 11 10 9 9 8 7 7 6 5 4 4 3
30 31 32 31 29 28 28 29 29 28 26 24 23 22 21 22 23 23 25 26 27 27 27 27 26 26 27 27 27 27 27 26 26 26 24 22 20 19 20 21 21 21 21 19 18 17 16 14 13 13 12 11 11 10 9 9 8 7 7 6 6 5 4
26 29 31 31 30 28 29 31 31 30 28 26 25 25 24 23 23 24 25 26 27 27 27 26 25 25 25 27 28 28 27 27 26 26 25 22 20 20 21 21 22 22 21 20 19 18 16 14 14 13 12 12 11 11 10 9 9 8 7 7 7 6 6
22 25 28 30 29 29 29 32 33 32 31 30 29 27 26 25 24 24 24 25 26 27 26 26 26 25 25 26 27 27 27 28 27 27 25 23 21 21 21 22 22 22 21 20 19 18 16 15 14 14 13 13 12 11 10 10 10 9 8 8 7 7 7
21 22 24 25 26 28 29 31 34 34 34 33 30 28 26 25 24 24 24 25 26 25 25 26 27 27 26 26 25 26 27 28 28 27 26 24 23 22 22 23 23 23 22 21 20 18 17 16 15 15 14 14 13 12 11 11 11 10 10 9 8 8 8
25 23 22 22 23 25 29 32 33 34 34 33 31 29 27 25 24 24 25 26 26 26 26 27 28 28 27 26 26 26 27 27 27 27 25 24 24 24 24 24 24 23 23 22 20 19 18 17 17 17 15 15 14 13 13 13 12 12 10 9 9 9 9
28 27 25 24 24 24 28 31 32 32 33 32 32 31 28 26 25 25 25 26 26 27 28 28 28 28 27 27 27 27 27 27 27 27 26 25 25 25 26 25 25 24 23 22 21 20 19 19 18 17 16 16 15 14 14 13 13 13 12 11 11 10 10
31 31 30 29 29 28 29 31 31 31 32 32 32 31 28 27 26 25 26 27 28 29 30 30 29 27 27 27 27 27 27 27 27 26 26 26 26 27 27 26 25 24 23 23 23 22 21 20 19 18 17 17 16 15 15 14 14 13 13 12 12 12 12
37 37 34 33 34 34 32 31 31 31 32 33 33 32 30 28 27 26 26 27 28 30 31 31 30 28 27 26 26 26 27 26 26 26 26 27 27 28 28 27 26 25 25 25 24 23 22 21 20 19 18 17 17 16 16 14 14 14 13 13 14 14 14
41 40 38 36 38 39 36 33 31 32 32 34 34 33 32 30 28 28 27 28 29 31 32 31 30 29 27 26 26 26 26 27 27 28 28 29 29 29 29 27 27 26 26 26 25 24 23 22 21 20 19 18 18 17 16 14 14 15 15 15 15 15 15
38 39 40 41 42 42 39 35 34 34 33 33 34 34 33 32 30 30 29 29 29 30 32 32 31 29 27 26 25 26 27 28 29 29 30 30 30 30 29 28 28 27 27 26 25 24 24 23 21 20 19 19 18 17 15 15 15 16 16 16 16 16 16
36 39 41 43 44 43 39 37 37 36 34 34 34 34 34 33 32 30 29 29 29 30 31 31 31 29 27 25 25 27 28 30 30 30 30 30 30 30 29 29 28 27 27 26 26 25 24 22 21 20 20 20 19 17 16 16 16 16 16 16 16 16 15
34 38 41 43 43 42 39 38 39 38 36 34 34 34 34 33 31 29 29 28 28 29 30 30 29 28 26 26 26 28 30 31 31 32 32 31 31 31 30 29 28 27 27 27 26 25 24 22 21 21 21 21 20 19 18 18 17 16 16 16 15 15 15
33 38 41 42 41 39 37 37 39 38 35 33 33 34 34 33 30 29 29 28 27 28 29 30 29 28 27 27 28 29 30 31 32 32 32 32 32 31 30 28 27 26 26 26 25 24 23 22 22 22 22 21 20 19 19 19 17 15 15 15 15 15 15
31 35 38 40 39 37 36 36 36 36 34 32 33 34 33 31 29 28 27 26 27 28 29 29 29 28 28 28 28 29 30 32 32 32 32 32 31 30 29 27 26 25 25 24 24 24 23 22 22 22 21 20 20 20 20 18 17 15 15 15 15 15 15
29 31 33 36 36 36 36 35 34 34 34 33 33 33 32 31 30 30 29 28 28 29 28 28 28 28 29 28 28 29 30 31 31 31 31 31 30 29 27 25 24 24 24 24 23 22 22 22 22 21 20 20 21 21 20 19 17 16 16 16 16 16 15
30 30 30 31 34 36 36 35 33 33 34 34 34 34 33 32 33 33 32 31 29 29 28 27 27 28 28 28 28 29 30 30 30 30 30 29 29 27 26 25 25 25 25 24 23 22 22 22 21 21 21 21 21 21 21 19 18 18 17 17 17 16 15
29 28 28 29 31 33 34 34 34 35 36 36 36 35 34 33 35 35 33 31 30 29 28 28 28 28 29 29 29 29 29 29 29 29 29 28 28 27 26 26 26 26 26 25 24 23 23 22 21 21 22 22 22 21 21 21 20 19 19 19 18 16 15
27 25 26 28 30 32 34 35 36 37 39 39 38 36 34 34 36 37 34 32 30 29 29 29 28 29 29 29 29 29 29 29 29 28 28 28 27 27 26 26 25 25 25 25 24 24 24 23 23 23 23 23 22 22 23 22 22 21 21 21 19 16 15
26 23 25 28 30 33 35 37 38 38 40 41 40 37 35 35 38 38 35 32 30 29 29 28 28 29 29 28 28 28 27 28 28 27 27 26 25 24 24 24 24 24 24 24 24 25 25 25 25 25 24 24 24 25 25 25 24 23 23 22 20 17 17
27 22 23 28 31 34 36 36 35 36 39 41 41 39 38 38 39 39 36 33 32 30 29 28 28 29 29 28 27 26 26 25 25 25 24 23 23 23 23 23 23 23 23 23 24 25 26 27 26 26 26 25 26 27 27 26 26 24 23 23 21 19 20
29 22 23 29 33 34 35 34 33 34 36 38 40 41 40 39 39 38 35 34 33 32 30 30 30 30 29 28 27 25 24 24 24 23 23 23 23 23 24 24 24 24 24 23 23 24 26 27 27 27 28 28 28 28 28 28 27 25 24 24 23 21 22
29 23 24 31 35 35 35 34 34 34 34 35 38 41 40 38 36 35 35 34 33 32 31 31 30 30 29 28 26 25 24 23 23 23 23 23 24 23 23 24 25 25 25 24 24 24 25 26 27 28 30 30 30 30 29 29 28 27 26 26 24 23 23
27 24 27 34 38 37 37 36 36 35 34 34 37 40 40 36 34 34 35 34 33 33 32 32 32 31 30 29 27 26 25 25 24 24 25 25 25 24 24 24 24 25 25 25 25 24 24 25 27 29 30 31 32 31 30 29 29 29 28 27 26 25 25
28 26 29 37 40 40 39 38 38 38 36 35 36 39 38 35 33 34 35 34 34 33 33 33 33 33 33 32 31 30 28 27 27 26 26 27 27 27 26 26 25 25 25 25 24 23 23 24 25 28 30 31 31 31 31 31 31 31 30 28 28 27 26
30 28 31 37 41 42 42 42 42 41 38 36 36 37 37 35 35 36 36 36 37 36 36 35 35 34 35 35 35 33 32 30 30 29 28 29 29 29 29 28 27 26 26 25 23 22 21 22 23 25 27 29 30 31 32 33 33 32 32 31 30 29 28
32 31 33 38 41 43 45 45 45 43 40 38 36 35 34 35 36 36 36 37 38 37 38 39 38 37 37 38 37 37 35 34 33 32 32 32 31 31 31 31 30 28 27 26 24 22 21 21 21 22 24 27 29 30 31 33 33 33 33 32 32 30 29
35 33 35 39 41 42 43 42 41 40 39 37 35 33 34 35 35 35 36 37 37 37 38 40 41 41 41 41 40 40 38 37 36 35 35 35 34 33 33 33 31 30 29 28 26 24 23 22 21 21 22 25 27 29 30 31 31 32 32 33 32 31 30
37 36 38 40 42 41 39 36 34 34 34 34 34 34 35 36 36 37 38 39 40 40 41 41 42 43 43 43 43 43 42 40 39 38 37 37 37 36 35 34 33 31 31 31 30 28 26 25 24 22 22 23 25 28 30 30 30 31 32 33 33 32 33
39 38 40 42 43 43 40 38 35 33 32 32 34 35 37 38 39 40 40 40 42 43 43 43 44 44 44 44 44 45 44 43 42 41 40 40 39 39 37 36 34 33 33 33 33 33 31 30 28 26 25 24 25 26 28 29 29 30 31 33 33 33 33
42 40 40 42 44 44 42 40 38 36 33 32 33 35 36 38 39 39 40 41 43 43 44 44 45 46 46 46 46 45 45 44 44 43 43 43 42 41 40 39 37 36 35 36 36 37 36 35 33 31 30 29 28 27 26 26 27 29 30 31 32 32 32
45 43 42 43 44 44 43 41 39 37 34 33 33 34 34 35 36 37 38 40 41 42 42 43 44 46 47 48 48 48 47 47 46 46 46 46 46 44 43 43 42 41 40 39 39 39 39 38 37 35 34 33 31 30 29 28 28 29 29 30 30 31 32
47 46 45 44 44 43 42 40 38 35 33 33 34 34 33 33 33 34 35 37 39 40 41 42 43 45 46 47 48 48 49 49 49 49 49 49 48 47 47 47 47 46 45 44 43 42 42 41 41 39 38 36 35 33 32 32 32 32 32 32 32 32 33
48 47 47 46 44 43 42 40 37 35 34 34 35 35 34 34 33 33 33 34 36 37 38 40 42 43 44 45 45 46 47 48 48 48 49 48 48 49 49 48 48 48 47 47 46 45 44 43 43 42 41 40 39 38 36 35 34 34 34 34 35 35 36
Wind_Direction
206 212 218 224 221 215 211 203 198 202 202 197 195 193 192 189 188 190 190 189 189 188 185 182 180 181 184 190 197 201 202 196 190 194 202 205 205 204 196 187 184 184 182 180 178 172 165 161 158 155 150 143 135 128 121 114 107 102 98 94 90 89 90
202 207 209 217 218 211 208 207 204 204 203 200 197 194 191 189 189 190 190 189 188 187 186 184 182 181 184 189 194 198 200 197 194 198 204 206 205 203 198 193 190 189 186 182 177 173 173 172 169 164 159 155 152 150 144 135 126 117 109 103 97 93 90
203 207 205 210 214 209 206 208 207 205 203 201 197 193 190 190 191 193 193 191 190 189 188 187 184 183 185 188 191 194 197 196 196 200 204 205 204 203 202 200 196 194 191 185 180 180 181 181 177 172 170 166 166 168 167 162 158 155 146 133 120 108 99
204 209 207 207 211 209 204 206 206 204 202 199 194 191 192 193 195 196 196 194 192 189 189 189 188 187 187 188 189 191 194 195 196 200 204 204 204 203 204 204 201 199 196 191 188 188 188 187 183 181 180 176 176 178 180 181 179 182 190 194 189 176 160
205 209 211 210 210 207 201 200 203 201 197 194 190 190 193 196 198 198 198 198 194 190 190 192 192 191 189 188 188 190 191 192 195 200 204 204 204 203 204 207 205 203 202 198 197 196 195 192 189 188 187 184 185 185 187 191 191 194 202 212 220 220 218
208 212 217 216 212 209 202 197 199 199 195 192 189 189 193 198 201 201 201 201 198 194 194 195 196 195 192 190 189 190 191 192 195 201 205 204 203 204 206 208 207 206 205 204 204 204 202 199 195 193 191 190 191 192 193 199 203 205 208 216 226 229 227
209 215 221 221 216 212 205 198 197 197 196 194 192 190 192 196 201 205 206 205 202 199 197 198 200 200 197 195 194 192 192 194 197 202 206 206 204 205 209 210 209 209 209 208 209 210 208 205 199 196 196 198 200 201 202 208 213 216 217 219 225 230 229
204 212 220 224 223 219 211 201 197 197 197 198 197 195 193 193 199 205 209 209 208 204 199 198 201 203 203 200 198 197 196 197 199 203 207 208 207 207 210 211 211 212 211 211 212 211 210 207 202 200 203 207 211 212 214 219 222 223 223 223 225 229 232
202 207 215 221 223 223 217 206 200 200 200 202 201 199 195 192 196 202 208 211 210 207 203 201 202 204 206 205 202 200 200 200 202 204 206 208 208 208 209 211 212 212 212 213 213 211 209 206 203 205 209 214 217 220 223 228 232 233 232 229 228 229 231
206 211 215 217 216 217 216 209 204 203 204 204 204 203 198 192 192 198 205 210 210 208 205 204 204 206 208 208 206 204 202 202 204 206 207 207 207 207 208 209 210 210 211 213 212 210 207 204 204 207 212 216 220 223 227 233 239 243 242 239 236 234 232
213 216 213 212 213 213 212 210 207 207 208 209 207 205 199 191 191 196 202 208 210 209 208 206 205 206 207 210 210 208 204 203 204 206 207 207 205 206 207 208 209 209 210 211 210 209 206 203 206 211 214 217 222 226 231 237 243 247 249 249 248 244 238
216 219 212 206 208 212 213 213 213 213 212 212 210 205 198 193 193 196 200 205 208 209 209 207 206 205 206 209 211 211 208 206 205 206 207 207 205 205 207 207 207 206 206 207 208 207 205 205 209 213 215 220 225 231 236 240 244 248 252 255 256 254 247
212 215 212 205 205 208 211 214 217 216 212 212 210 205 198 195 195 197 201 204 207 209 209 207 206 205 205 207 210 211 209 208 207 207 207 206 205 205 206 205 205 204 205 206 207 206 206 208 211 214 217 223 229 236 240 242 247 252 256 259 259 258 253
210 209 207 203 202 205 206 208 213 214 212 212 211 205 198 196 196 199 202 204 206 207 208 207 206 205 205 207 208 208 208 207 207 206 205 204 203 204 205 204 204 204 206 207 207 206 207 210 213 215 221 228 233 238 242 245 250 256 259 260 260 258 253
212 209 205 201 200 202 203 205 210 213 212 212 212 206 200 197 198 200 203 204 205 206 207 206 205 205 206 206 207 207 206 204 204 204 203 202 202 204 205 205 205 206 207 208 207 208 211 213 216 220 225 231 236 238 239 243 249 254 258 258 256 252 249
211 211 207 204 202 201 202 205 210 214 213 212 212 209 202 199 200 202 204 205 205 206 207 206 206 205 205 205 206 206 204 202 201 201 201 201 203 204 205 206 207 207 207 207 207 209 213 216 220 225 229 233 236 236 236 241 247 252 255 253 249 246 243
208 209 208 207 205 201 202 206 211 215 214 212 212 210 205 202 202 202 204 205 205 205 206 205 205 204 204 205 207 206 204 201 200 200 200 202 204 206 207 208 207 206 205 206 208 210 214 218 223 228 232 235 235 234 235 241 248 251 251 248 244 241 239
205 208 208 207 205 201 202 206 211 215 215 212 212 209 205 203 201 201 202 203 203 204 203 203 202 202 204 206 207 206 204 202 201 201 202 204 206 208 209 209 206 205 205 207 211 214 216 219 224 229 233 235 235 235 237 243 249 249 245 242 240 240 239
206 210 209 209 205 201 202 206 210 213 213 211 210 208 204 202 200 198 198 199 200 201 200 200 200 201 204 207 206 205 204 203 203 203 204 206 208 209 210 209 207 206 208 212 216 219 221 224 229 232 233 235 236 238 241 247 251 249 244 240 240 240 239
204 205 206 207 204 201 202 206 207 208 206 204 204 204 203 201 198 195 196 197 198 198 197 198 199 202 205 206 206 205 205 204 204 205 206 207 209 210 209 208 208 209 213 217 221 223 226 229 233 233 233 234 236 239 243 248 252 249 245 241 241 241 240
199 198 197 200 201 202 204 205 205 204 200 197 199 201 201 199 197 196 196 198 199 198 196 196 198 201 203 203 204 205 205 204 204 204 205 206 207 208 207 207 209 212 216 220 223 225 228 231 233 234 233 234 236 239 243 247 248 246 242 239 240 241 240
197 196 194 194 198 202 204 204 203 201 197 195 198 201 201 199 197 196 197 198 199 199 197 196 197 200 201 200 201 202 202 202 201 201 203 204 205 207 207 208 211 215 218 221 223 225 228 231 234 235 235 234 236 239 242 244 244 242 238 236 237 239 238
195 197 197 194 195 198 200 202 202 200 197 196 198 201 202 200 198 198 198 198 200 200 199 197 197 199 200 199 199 199 199 199 199 200 202 205 206 208 210 212 215 219 221 223 224 225 227 229 231 233 235 235 236 238 239 240 240 237 235 234 235 235 234
193 196 200 198 196 196 197 199 202 202 201 201 200 202 203 201 200 199 199 198 200 202 201 199 198 199 198 198 199 198 198 198 199 201 204 206 208 209 211 213 216 220 222 223 224 225 226 228 229 231 234 235 236 237 238 238 237 235 234 234 233 232 232
195 196 201 202 198 195 196 199 203 205 207 207 204 203 204 203 202 200 199 199 199 201 199 196 195 196 196 197 198 197 196 197 198 200 202 204 206 207 209 212 215 218 221 222 225 226 227 229 229 230 233 235 236 238 239 240 238 235 235 235 233 230 232
199 200 204 204 201 195 194 199 204 207 210 210 206 204 204 205 204 202 200 200 199 197 195 192 192 193 194 195 196 194 193 194 196 199 201 203 206 209 212 215 217 221 223 225 228 230 231 232 231 231 233 235 237 239 240 241 240 237 236 238 236 233 235
203 205 204 203 203 197 193 197 202 206 210 209 205 204 205 206 206 204 203 202 199 195 193 192 192 193 193 195 196 195 195 198 201 204 207 209 212 216 219 222 224 227 229 231 233 235 237 237 236 235 235 236 237 239 240 241 242 240 238 239 240 239 239
207 208 203 201 201 196 192 196 201 205 210 209 204 205 206 206 207 207 205 204 200 196 194 193 192 193 195 197 198 199 200 203 207 212 215 217 220 221 224 227 229 231 234 236 238 240 241 242 241 239 238 238 238 240 241 242 243 243 242 241 241 242 242
208 206 201 200 198 193 192 197 203 208 212 211 208 207 207 206 207 208 208 206 203 199 197 196 195 196 197 198 200 203 206 208 212 216 220 223 225 226 228 230 232 233 235 238 241 246 248 248 247 244 241 240 240 240 241 242 243 244 245 244 245 246 247
205 201 199 199 197 193 194 199 206 210 213 214 213 211 208 207 209 210 210 210 207 203 200 199 200 201 200 200 202 207 211 214 217 220 223 226 228 230 232 234 234 235 236 238 242 248 253 254 253 250 245 242 241 241 241 242 243 245 246 247 248 250 252
200 199 199 199 198 197 199 202 207 211 214 216 217 215 210 210 213 214 214 216 216 211 206 203 203 204 205 205 207 210 213 215 218 222 225 228 230 232 234 236 237 238 239 240 241 246 251 254 255 254 249 243 242 243 242 242 243 245 248 250 252 254 256
198 199 200 200 200 202 203 205 208 211 213 216 217 214 211 212 214 214 216 218 220 220 216 211 209 209 210 210 211 213 215 216 219 222 225 228 231 233 236 237 238 239 240 240 241 243 247 252 254 254 250 245 242 243 244 243 243 243 246 249 252 255 258
197 200 201 201 202 205 206 206 208 209 210 211 211 209 210 211 212 213 215 216 218 220 220 219 217 216 216 216 216 216 217 216 219 223 226 228 231 233 235 237 239 241 241 241 243 243 244 248 251 251 250 247 243 242 244 245 245 245 247 248 250 253 255
197 199 200 201 203 206 208 210 211 212 211 210 209 209 210 211 212 213 215 217 219 221 221 222 223 222 223 223 223 222 221 219 220 222 225 228 231 232 233 235 238 241 242 242 244 244 244 245 246 247 248 247 245 244 245 246 247 248 250 251 253 254 254
197 198 199 201 202 205 208 211 213 214 214 214 213 211 211 212 213 214 216 217 220 222 223 224 225 226 227 228 228 228 226 224 224 225 227 229 230 231 231 232 234 237 240 242 243 245 246 246 245 245 246 245 244 245 246 246 247 248 248 250 251 252 253
198 199 198 200 201 203 206 208 210 213 216 216 215 213 212 212 213 214 216 218 220 222 223 224 225 226 228 229 230 230 229 228 228 229 229 231 231 231 231 232 232 233 235 238 240 243 245 247 247 247 247 247 247 246 245 245 245 245 246 247 248 248 249
200 200 200 201 202 203 206 208 211 215 217 217 217 215 214 214 213 213 214 216 218 220 222 223 225 226 228 230 231 232 233 232 232 232 232 233 234 234 234 234 235 236 237 237 238 240 242 245 247 249 250 250 250 249 247 246 246 245 245 246 247 247 248
200 202 202 203 205 207 210 212 215 218 219 218 218 218 217 216 215 213 213 214 217 219 222 224 226 227 228 230 232 233 235 236 236 237 237 238 238 239 240 241 242 243 244 244 245 245 246 246 248 249 250 251 252 252 252 252 251 250 250 249 249 250 251
Height
5871 5874 5877 5880 5882 5884 5885 5886 5887 5887 5888 5889 5890 5891 5892 5894 5897 5899 5902 5904 5906 5908 5910 5911 5913 5915 5917 5919 5922 5924 5926 5929 5931 5932 5933 5934 5936 5937 5939 5940 5940 5941 5942 5943 5944 5945 5946 5947 5948 5949 5950 5951 5952 5953 5954 5955 5955 5955 5956 5956 5956 5956 5956
5867 5870 5873 5876 5878 5881 5883 5884 5885 5886 5887 5888 5889 5890 5892 5894 5896 5898 5901 5903 5905 5906 5908 5910 5911 5913 5915 5917 5920 5922 5925 5928 5929 5931 5932 5934 5935 5937 5938 5939 5940 5941 5942 5943 5944 5945 5946 5947 5947 5948 5949 5950 5952 5953 5954 5955 5955 5956 5956 5957 5957 5957 5957
5865 5867 5870 5873 5875 5879 5881 5882 5883 5885 5886 5887 5888 5890 5891 5893 5895 5897 5899 5901 5903 5905 5907 5908 5910 5911 5913 5915 5918 5921 5923 5926 5928 5930 5931 5933 5934 5936 5937 5938 5939 5940 5941 5942 5943 5944 5945 5946 5947 5948 5949 5950 5951 5952 5953 5954 5955 5956 5956 5957 5957 5957 5957
5864 5865 5867 5870 5873 5876 5878 5880 5882 5883 5885 5886 5887 5888 5890 5891 5893 5895 5897 5899 5901 5903 5905 5907 5908 5910 5911 5914 5916 5919 5922 5924 5926 5928 5930 5931 5933 5934 5936 5937 5938 5940 5941 5942 5942 5943 5944 5945 5947 5947 5948 5949 5950 5951 5952 5953 5954 5955 5956 5956 5957 5957 5957
5862 5864 5865 5868 5870 5872 5875 5877 5879 5881 5883 5884 5885 5886 5888 5889 5890 5893 5895 5898 5900 5901 5903 5904 5906 5908 5910 5912 5914 5917 5919 5922 5924 5926 5927 5929 5931 5933 5935 5936 5937 5939 5940 5941 5942 5943 5944 5945 5946 5947 5948 5949 5949 5950 5951 5952 5953 5954 5955 5955 5956 5956 5956
5861 5863 5864 5866 5869 5871 5872 5875 5877 5879 5881 5883 5884 5884 5886 5888 5889 5892 5894 5896 5898 5899 5901 5902 5904 5906 5908 5910 5913 5915 5917 5920 5922 5924 5925 5927 5930 5932 5933 5934 5936 5937 5939 5940 5941 5942 5943 5944 5945 5946 5947 5948 5949 5949 5950 5951 5952 5953 5954 5954 5955 5955 5955
5860 5862 5863 5865 5867 5869 5870 5872 5874 5877 5879 5881 5881 5882 5883 5886 5888 5890 5892 5894 5896 5898 5900 5902 5904 5906 5908 5909 5911 5913 5916 5918 5920 5922 5924 5926 5928 5930 5931 5933 5935 5936 5937 5939 5940 5941 5943 5944 5945 5946 5947 5948 5949 5949 5949 5950 5951 5952 5952 5953 5953 5954 5954
5859 5861 5862 5864 5866 5867 5869 5871 5872 5874 5876 5878 5878 5879 5881 5883 5886 5888 5891 5893 5895 5897 5899 5901 5902 5905 5906 5908 5910 5912 5914 5916 5918 5920 5922 5924 5926 5928 5930 5932 5933 5935 5936 5938 5939 5940 5942 5943 5944 5945 5946 5947 5948 5948 5949 5949 5950 5951 5951 5952 5952 5953 5953
5858 5859 5861 5862 5864 5866 5867 5869 5871 5872 5873 5875 5877 5879 5880 5882 5884 5887 5889 5891 5893 5896 5898 5899 5901 5902 5904 5906 5908 5910 5912 5913 5916 5918 5920 5923 5925 5926 5928 5930 5931 5933 5935 5936 5938 5939 5941 5942 5943 5944 5945 5946 5947 5948 5948 5948 5949 5949 5950 5951 5951 5951 5951
5856 5857 5859 5860 5861 5863 5865 5867 5868 5869 5871 5873 5875 5877 5878 5880 5882 5885 5887 5889 5892 5894 5896 5897 5899 5900 5902 5904 5906 5908 5909 5911 5914 5916 5918 5921 5923 5924 5926 5928 5929 5932 5933 5935 5936 5938 5939 5940 5942 5943 5944 5944 5945 5946 5947 5947 5948 5948 5949 5949 5950 5950 5950
5852 5854 5856 5857 5858 5860 5862 5864 5866 5867 5869 5871 5873 5875 5877 5879 5881 5883 5885 5888 5890 5892 5893 5895 5896 5898 5901 5902 5904 5906 5908 5910 5912 5914 5916 5919 5921 5922 5924 5926 5928 5930 5932 5933 5935 5936 5938 5939 5940 5941 5942 5943 5943 5944 5945 5946 5947 5947 5948 5948 5948 5948 5948
5847 5850 5853 5855 5856 5858 5860 5862 5864 5866 5868 5870 5871 5873 5875 5877 5879 5881 5883 5885 5887 5889 5891 5893 5894 5896 5899 5900 5902 5904 5906 5908 5910 5912 5914 5916 5918 5920 5922 5924 5926 5928 5930 5931 5933 5934 5936 5937 5938 5939 5940 5941 5942 5943 5943 5945 5945 5945 5946 5946 5946 5947 5947
5841 5844 5848 5851 5853 5854 5856 5859 5861 5864 5866 5868 5869 5871 5873 5875 5877 5879 5881 5883 5885 5887 5889 5891 5892 5894 5896 5898 5900 5902 5904 5906 5908 5910 5912 5914 5916 5918 5920 5922 5924 5926 5927 5929 5931 5932 5934 5936 5937 5937 5938 5939 5940 5941 5942 5943 5943 5944 5944 5944 5944 5945 5945
5835 5838 5842 5845 5848 5850 5853 5856 5859 5861 5864 5866 5867 5869 5871 5872 5874 5876 5878 5880 5882 5884 5886 5888 5890 5892 5894 5896 5898 5901 5903 5904 5906 5908 5910 5911 5913 5916 5918 5920 5922 5923 5925 5927 5929 5931 5932 5933 5934 5935 5936 5937 5938 5939 5940 5941 5942 5942 5942 5942 5942 5943 5942
5832 5834 5837 5839 5842 5846 5849 5853 5856 5858 5861 5863 5865 5867 5868 5870 5871 5873 5875 5877 5879 5881 5884 5886 5888 5890 5892 5894 5897 5898 5900 5901 5903 5905 5907 5909 5911 5914 5916 5918 5920 5921 5923 5925 5927 5929 5930 5931 5933 5934 5935 5936 5937 5938 5939 5939 5940 5940 5940 5940 5940 5941 5941
5829 5831 5833 5835 5838 5842 5846 5849 5853 5856 5858 5861 5863 5865 5866 5868 5869 5871 5874 5875 5878 5880 5881 5884 5886 5888 5890 5892 5894 5896 5897 5899 5901 5903 5905 5907 5909 5912 5914 5916 5918 5919 5921 5923 5925 5926 5928 5929 5931 5932 5933 5934 5935 5936 5937 5937 5938 5938 5938 5938 5939 5939 5939
5826 5828 5830 5833 5835 5839 5843 5846 5849 5852 5855 5858 5861 5863 5865 5866 5868 5870 5872 5874 5876 5878 5880 5882 5884 5886 5888 5890 5891 5892 5894 5897 5899 5901 5903 5905 5907 5909 5911 5913 5915 5917 5919 5921 5923 5924 5926 5928 5929 5930 5931 5932 5933 5934 5935 5935 5936 5936 5936 5936 5937 5937 5937
5823 5825 5827 5830 5833 5836 5839 5843 5846 5850 5853 5856 5858 5861 5863 5865 5866 5868 5870 5872 5874 5876 5878 5880 5882 5884 5886 5887 5888 5890 5893 5895 5897 5899 5901 5903 5905 5907 5909 5911 5913 5916 5918 5919 5921 5922 5924 5926 5927 5928 5929 5931 5932 5933 5933 5934 5934 5934 5935 5935 5935 5936 5936
5821 5823 5826 5828 5830 5833 5837 5841 5844 5848 5851 5854 5857 5859 5861 5863 5865 5867 5869 5871 5872 5873 5875 5877 5879 5881 5883 5884 5886 5889 5891 5893 5895 5897 5899 5901 5903 5905 5907 5910 5912 5915 5916 5918 5919 5921 5922 5924 5925 5926 5928 5929 5930 5931 5931 5932 5932 5933 5933 5933 5934 5934 5934
5819 5821 5823 5826 5829 5832 5835 5839 5842 5845 5849 5852 5855 5858 5859 5861 5863 5864 5866 5868 5869 5871 5873 5875 5876 5878 5880 5882 5885 5887 5889 5891 5894 5896 5898 5900 5902 5904 5907 5909 5911 5913 5915 5916 5918 5919 5921 5922 5923 5924 5926 5927 5928 5929 5930 5930 5931 5931 5931 5931 5932 5933 5933
5817 5819 5821 5824 5827 5831 5834 5837 5840 5843 5846 5849 5852 5854 5856 5857 5859 5861 5863 5864 5866 5869 5870 5872 5874 5876 5878 5880 5883 5885 5887 5890 5892 5894 5896 5899 5901 5903 5906 5908 5910 5911 5913 5915 5916 5918 5919 5920 5921 5922 5924 5925 5926 5927 5928 5928 5929 5929 5929 5930 5930 5931 5932
5816 5817 5819 5822 5825 5829 5832 5836 5838 5841 5844 5847 5849 5851 5853 5855 5857 5858 5860 5862 5864 5867 5868 5870 5872 5873 5876 5878 5881 5883 5886 5888 5890 5892 5895 5897 5899 5902 5904 5906 5908 5909 5911 5912 5914 5916 5917 5919 5920 5920 5921 5922 5924 5925 5926 5926 5927 5927 5927 5928 5929 5930 5931
5814 5816 5818 5820 5823 5827 5830 5833 5836 5838 5842 5844 5847 5849 5851 5853 5855 5856 5858 5860 5863 5865 5867 5869 5871 5872 5874 5877 5879 5881 5884 5886 5889 5891 5893 5895 5898 5900 5902 5904 5906 5907 5909 5910 5912 5914 5915 5916 5917 5918 5919 5920 5922 5923 5923 5923 5924 5925 5925 5925 5927 5928 5929
5813 5815 5817 5818 5821 5824 5827 5830 5833 5836 5839 5841 5844 5847 5849 5851 5853 5854 5857 5859 5862 5864 5866 5868 5870 5872 5874 5876 5878 5880 5883 5885 5887 5890 5892 5894 5896 5898 5900 5902 5903 5905 5906 5908 5910 5911 5912 5913 5914 5916 5917 5918 5919 5920 5920 5921 5921 5922 5922 5923 5925 5926 5927
5812 5814 5815 5817 5819 5822 5825 5828 5831 5833 5836 5838 5841 5844 5846 5848 5850 5852 5855 5858 5860 5862 5865 5867 5869 5871 5873 5875 5877 5879 5882 5884 5886 5888 5890 5893 5895 5896 5898 5900 5901 5902 5904 5906 5907 5908 5909 5910 5912 5913 5914 5916 5917 5917 5918 5918 5918 5919 5920 5921 5922 5924 5925
5810 5812 5815 5816 5818 5820 5823 5826 5829 5831 5833 5835 5838 5841 5843 5845 5848 5851 5854 5856 5858 5861 5863 5866 5867 5869 5871 5873 5876 5878 5880 5883 5885 5887 5889 5891 5892 5894 5896 5897 5899 5900 5902 5903 5905 5906 5907 5908 5910 5911 5912 5913 5914 5914 5915 5916 5916 5917 5918 5918 5920 5922 5923
5807 5810 5813 5815 5817 5819 5822 5824 5827 5829 5831 5833 5836 5839 5841 5844 5847 5850 5853 5855 5858 5860 5863 5865 5867 5869 5871 5873 5875 5877 5880 5882 5884 5885 5887 5889 5890 5892 5894 5895 5896 5898 5899 5901 5902 5903 5904 5906 5907 5908 5909 5910 5911 5912 5913 5913 5913 5914 5915 5916 5917 5919 5920
5805 5808 5810 5813 5815 5818 5821 5823 5825 5827 5829 5832 5835 5837 5840 5843 5846 5849 5851 5854 5857 5860 5862 5864 5866 5868 5870 5872 5874 5876 5878 5880 5882 5884 5885 5887 5888 5890 5892 5893 5894 5896 5897 5898 5899 5901 5902 5903 5904 5905 5906 5907 5908 5909 5910 5911 5911 5911 5912 5913 5914 5916 5918
5802 5805 5808 5811 5814 5816 5819 5822 5823 5825 5828 5830 5833 5835 5838 5842 5845 5847 5850 5853 5855 5858 5860 5862 5864 5866 5868 5870 5872 5874 5876 5878 5879 5881 5883 5884 5886 5888 5889 5890 5892 5893 5895 5896 5897 5898 5899 5900 5901 5902 5903 5904 5905 5907 5907 5908 5908 5908 5909 5910 5911 5913 5914
5800 5803 5805 5809 5812 5815 5817 5819 5821 5824 5826 5829 5831 5834 5837 5841 5843 5845 5848 5850 5852 5854 5857 5860 5862 5864 5866 5868 5870 5871 5873 5875 5876 5878 5880 5881 5883 5885 5886 5887 5889 5891 5892 5893 5895 5896 5896 5897 5897 5898 5899 5901 5902 5903 5904 5904 5905 5905 5906 5907 5908 5909 5911
5797 5800 5803 5806 5809 5812 5814 5817 5819 5822 5825 5828 5830 5833 5836 5838 5841 5843 5846 5847 5849 5851 5854 5856 5858 5861 5863 5865 5867 5869 5870 5872 5874 5875 5877 5878 5879 5881 5883 5884 5886 5888 5889 5891 5892 5893 5894 5894 5895 5895 5896 5897 5899 5900 5900 5900 5901 5902 5903 5904 5905 5906 5908
5794 5797 5800 5804 5807 5809 5812 5815 5818 5821 5824 5826 5828 5832 5834 5836 5838 5841 5843 5845 5847 5849 5851 5852 5855 5857 5859 5861 5863 5865 5867 5869 5871 5872 5873 5875 5876 5878 5880 5881 5883 5885 5886 5888 5889 5890 5891 5892 5892 5893 5893 5894 5895 5896 5896 5896 5898 5899 5900 5901 5902 5903 5904
5790 5793 5797 5800 5804 5806 5809 5812 5815 5818 5821 5824 5826 5829 5831 5833 5836 5838 5840 5842 5844 5845 5847 5850 5852 5854 5856 5858 5859 5861 5863 5865 5867 5869 5870 5872 5873 5875 5877 5878 5879 5881 5882 5884 5885 5887 5888 5889 5890 5890 5891 5891 5891 5892 5892 5893 5895 5896 5897 5898 5899 5900 5901
5787 5790 5793 5796 5800 5803 5806 5809 5812 5815 5818 5820 5823 5825 5828 5830 5832 5834 5836 5838 5840 5842 5844 5846 5848 5850 5852 5854 5856 5857 5859 5861 5863 5865 5867 5868 5870 5872 5873 5875 5876 5877 5879 5880 5881 5882 5884 5885 5886 5887 5887 5888 5888 5888 5889 5891 5892 5893 5894 5895 5896 5897 5898
5783 5786 5790 5793 5797 5800 5803 5806 5809 5811 5814 5817 5819 5822 5824 5826 5829 5831 5833 5834 5836 5838 5841 5843 5845 5847 5849 5850 5852 5854 5856 5857 5859 5861 5863 5865 5866 5868 5870 5871 5873 5874 5875 5876 5877 5878 5879 5881 5882 5883 5883 5883 5884 5885 5886 5888 5889 5889 5890 5891 5892 5893 5894
5778 5782 5786 5790 5793 5796 5799 5802 5805 5808 5810 5813 5815 5818 5820 5823 5825 5827 5829 5831 5832 5835 5837 5839 5841 5842 5844 5846 5848 5850 5852 5854 5856 5857 5859 5861 5862 5864 5865 5867 5868 5870 5871 5872 5873 5874 5875 5876 5877 5878 5879 5879 5881 5882 5883 5884 5885 5885 5886 5887 5888 5888 5889
5774 5778 5782 5786 5789 5792 5795 5798 5801 5804 5806 5809 5811 5814 5817 5819 5821 5823 5825 5827 5829 5831 5833 5834 5836 5838 5840 5842 5844 5846 5848 5850 5851 5853 5855 5857 5858 5860 5861 5862 5864 5865 5866 5867 5868 5870 5871 5872 5872 5873 5874 5875 5877 5878 5879 5880 5880 5881 5882 5883 5883 5884 5885
5770 5774 5778 5781 5785 5788 5791 5795 5797 5800 5803 5805 5808 5810 5812 5815 5817 5819 5821 5823 5825 5827 5829 5831 5832 5834 5836 5838 5840 5842 5844 5846 5848 5849 5851 5852 5854 5855 5857 5858 5859 5860 5862 5863 5864 5865 5866 5867 5868 5869 5870 5871 5872 5873 5874 5876 5876 5877 5878 5879 5879 5880 5880